Regional Weather Roundup
Issued by NWS Charleston, SC

Current Version | Previous Version | Graphics & Text | Print | Product List | Glossary On
Versions: 1 2 3 4 5 6 7 8 9 10 11 12 13 14 15 16 17 18 19 20 21 22 23 24 25 26 27 28 29 30 31 32 33 34 35 36 37 38 39 40 41 42 43 44 45 46 47 48 49 50
000
ASUS42 KCHS 292026
RWRCHS

REGIONAL WEATHER ROUNDUP
NATIONAL WEATHER SERVICE CHARLESTON SC
400 PM EDT SUN MAR 29 2015

NOTE: "FAIR" INDICATES FEW OR NO CLOUDS BELOW 12,000 FEET WITH NO
SIGNIFICANT WEATHER AND/OR OBSTRUCTIONS TO VISIBILITY.

NOT ALL STATIONS ARE QUALITY CONTROLLED BY THE NATIONAL
WEATHER SERVICE. USE DATA WITH CAUTION...ESPECIALLY
DEWPOINT OBSERVATIONS.

SCZ027-030-031-034>040-042>050-292100-
...SOUTHEAST SOUTH CAROLINA...

CITY           SKY/WX    TMP DP  RH WIND       PRES   REMARKS
N CHARLESTON   MOSUNNY   57  10  15 N6        30.35F
WATERFRONT PRK   N/A     50 N/A N/A SE14        N/A
MOUNT PLEASANT FAIR      52  30  43 E8        30.35F
PINOPOLIS        N/A     54  18  24 CALM      30.31F
MONCKS CORNER  FAIR      55  19  24 N6        30.35F
SUMMERVILLE    FAIR      59  19  21 CALM      30.36F
BEAUFORT MCAS  SUNNY     58  25  28 SE7       30.36F
BEAUFORT ARPT  FAIR      55  28  35 CALM      30.35F
HILTON HEAD IS SUNNY     54  30  40 SE6       30.37F
WALTERBORO     CLEAR     55  16  21 CALM      30.36S
ALLENDALE      FAIR      55  14  19 VRB3      30.34F

...SOUTHERN MIDLANDS AND PEE DEE...

CITY           SKY/WX    TMP DP  RH WIND       PRES   REMARKS
GEORGETOWN     NOT AVBL
KINGSTREE      NOT AVBL
ORANGEBURG     SUNNY     55  12  18 VRB5      30.36F
BARNWELL       FAIR      57  16  19 S6        30.34F
AIKEN          FAIR      54   7  15 S6        30.36F
MANNING        RAIN      52  10  19 SW5       30.36F
COLUMBIA       MOSUNNY   56  10  16 VRB7      30.34F
SUMTER         SUNNY     55   8  15 VRB2      30.35F
FLORENCE       SUNNY     53   9  17 W10       30.37F
MYRTLE BEACH   SUNNY     50  23  34 S12       30.39F
N MYRTLE BEACH SUNNY     49  23  36 S12       30.37S

$$

GAZ063-065-086>088-099>101-113>116-118-119-134>141-150-292100-
...SOUTHEAST GEORGIA...

CITY           SKY/WX    TMP DP  RH WIND       PRES   REMARKS
SAVANNAH ARPT  SUNNY     60  17  18 CALM      30.35F
HUNTER AAF     SUNNY     57  26  30 VRB7      30.33F
FORT STEWART   SUNNY     60  22  22 NE6       30.31F
STATESBORO     SUNNY     59  24  25 E6        30.33F
SYLVANIA       CLEAR     59  23  25 CALM      30.34F
CLAXTON        FAIR      61  28  29 NE5       30.33F

...CSRA...CENTRAL AND FAR SOUTHEAST GEORGIA...

CITY           SKY/WX    TMP DP  RH WIND       PRES   REMARKS
THOMSON        SUNNY     60  24  25 CALM      30.36F
AUGUSTA-BUSH   SUNNY     57  10  15 E6        30.34F
AUGUSTA-DANIEL SUNNY     56   9  15 E8        30.34F
SWAINSBORO     FAIR     N/A N/A N/A N5        30.33F
VIDALIA        SUNNY     61  27  27 CALM      30.33F
EASTMAN        FAIR      62  21  20 E3        30.35S
HAZLEHURST     FAIR      61  23  23 CALM      30.31F
ALMA           SUNNY     60  25  26 S6        30.33F
WAYCROSS       SUNNY     65  26  22 CALM      30.32F
JESUP          FAIR      64  30  27 NE7       30.33F
BAXLEY         FAIR      63  23  22 S3        30.32F
BRUNSWICK      SUNNY     57  28  33 E8G17     30.36F
SAINT SIMONS   SUNNY     55  34  45 E13       30.37F

$$

SCZ027-028-034-036>038-045-046-048>050-GAZ119-141-292100-
...LAKE AND SUPPLEMENTAL COASTAL OBSERVATIONS...

STATION/POSITION TIME  TEMP    WIND        PRES    WAVE   SWELL
                       AIR SEA DIR/SP/G            HT/PER HT/PER/DIR
                 (UTC) (F)     (DEG/KT/KT) (MB)    (FT/S) (FT/S/D)
UPR LAKE MARION  NOT AVBL
WINYAH BAY       1900   45     110/  6     1028.0S
LAKE MURRAY      2000   56      CALM  /  2 1026.8F
ACE BASIN NERRS  1900   55     200/  2     1029.0F
FORT PULASKI     1900   50 59   90/  9/ 12 1029.9F
SAPELO ISLAND    2000   55      70/ 11     1028.0F

$$

ANZ835-935-AMZ111-154-330-350-352-354-370-450-454-472-292100-
...C-MAN AND BUOY OBSERVATIONS...

STATION/POSITION TIME  TEMP    WIND        PRES    WAVE   SWELL
                       AIR SEA DIR/SP/G            HT/PER HT/PER/DIR
                 (UTC) (F)     (DEG/KT/KT) (MB)    (FT/S) (FT/S/D)
BUOY 41004       1950   47 68   10/ 12/ 16 1028.8F   4/ 6   3/ 6
BUOY 41008       1950   51 61   50/ 12/ 14 1028.3F   5/ 7   3/ 60/ 7
FOLLY BEACH CMAN 2000   48     120/  6/  8 1028.3F
CAPERS NEARSHORE NOT AVBL
FRIPP NEARSHORE  1900   49      80/  8/ 12 1028.3F


STATION/POSITION TIME  TEMP    WIND        PRES    WAVE   SWELL
                       AIR SEA DIR/SP/G            HT/PER HT/PER/DIR
                 (UTC) (F)     (DEG/KT/KT) (MB)    (FT/S) (FT/S/D)
5E ST. MARYS GA  1921      60                N/A     4/ 6
FRYING PAN BUOY  1950   44 65  350/  6/  8 1029.1F   4/ 6   3/ 50/ 6
BUOY 41025       NOT AVBL
CAPE LOOKOUT NC  2000   45     320/  6/  7 1027.0F
BUOY 41002       1950   53 68  320/ 17/ 23 1025.6F   8/ 8   3/ 20/10
BUOY 41010       1920   63 76  360/ 12/ 17 1026.0F
ST AUGUSTINE FL  2000   55 62  360/  8/  9 1028.8F


$$


USA.gov is the U.S. government's official web portal to all federal, state and local government web resources and services.